Location: Moy Burn
(57.3833°N, 4.0667°W)
Time: 09:27:24
(UTC+00:00)

Cosmos 2237 Rocket - Pass Details

Date: 08 August 2020
Orbit: 836 x 849 km, 71.0° (Epoch: 18 September)

Event Time Altitude Azimuth Distance (km) Brightness Sun altitude
Rises 22:31:48 0° 316° (NW) 3,418 6.9 -13.3°
Reaches altitude 10° 22:34:35 10° 327° (NNW) 2,478 6.1 -13.5°
Maximum altitude 22:39:33 30° 28° (NNE) 1,478 3.9 -13.8°
Drops below altitude 10° 22:44:30 10° 89° (E) 2,464 4.4 -14.1°
Enters shadow 22:47:09 - 100° (E) 3,360 5.0 -14.2°
